Tracking 27107 objects as of 20-Mar-2023
HD Live streaming from Space Station
objects crossing your sky now

SL-16 DEB

Track SL-16 DEB now!
10-day predictions


NORAD ID: 22337
Int'l Code: 1992-093AA
Perigee: 845.9 km
Apogee: 1,065.9 km
Inclination: 71.3 °
Period: 104.0 minutes
Semi major axis: 7326 km
RCS: 0.6915 m2 (medium)
Launch date: December 25, 1992
Source: Commonwealth of Independent States (former USSR) (CIS)
Launch site: TYURATAM MISSILE AND SPACE COMPLEX (TTMTR)

Note: This is SATELLITE DEBRIS
Your satellite tracking list
Your tracking list is empty




NASA's NSSDC Master Catalog

Two Line Element Set (TLE):
1 22337U 92093AA  23078.87353549  .00000095  00000-0  11241-3 0  9990
2 22337  71.2881 130.3142 0150088 222.2670 136.6794 13.84277979525592
Source of the keplerian elements: AFSPC